Home   Weather   Leonberg   Past weeks

Flag for Germany Past Weather in Leonberg, Baden-Württemberg, Germany — Yesterday and Last 2 Weeks

Now
50 °F

Passing clouds.


Feels Like: 46 °F
Forecast: 30 / 60 °F
Wind: 9 mph from North

Location: Stuttgart-Echterdingen

Current Time: Apr 23, 2017 at 5:59:23 pm

Latest Report: Apr 23, 2017 at 5:20 pm


Visibility: N/A

Pressure: 30.18 "Hg

Humidity: 40%

Dew Point: 27 °F

Location of LeonbergLocation

Past Weather in Leonberg — Graph

°F

Leonberg Temperature Yesterday

Maximum temperature yesterday: 54 °F (at 2:20 pm)
Minimum temperature yesterday: 41 °F (at 12:20 am)
Average temperature yesterday: 46 °F

High & Low Weather Summary for the Past Weeks

 TemperatureHumidityPressure
High73 °F (Apr 10, 1:20 pm)100% (Apr 18, 9:20 pm)30.54 "Hg (Apr 18, 9:20 pm)
Low27 °F (Apr 20, 5:20 am)20% (Apr 10, 2:50 pm)29.92 "Hg (Apr 13, 2:50 am)
Average47 °F66%30.17 "Hg
* Reported Apr 8 4:20 pm — Apr 23 4:50 pm, Leonberg, Weather by CustomWeather, © 2017

Note: Actual official high and low records may vary slightly from our data, if they occured in-between our weather recording intervals... More about our weather records

Advertising

Leonberg Weather History for the Previous 24 Hours

Scroll right to see more
 ConditionsComfort  
Time TempWeatherWind HumidityBarometerVisibility
4:50 pm
Sun, Apr 23
50 °FPassing clouds.9 mph43%30.18 "HgN/A
4:20 pm48 °FPassing clouds.9 mph43%30.18 "HgN/A
3:50 pm48 °FPassing clouds.12 mph43%30.21 "HgN/A
3:20 pm48 °FPassing clouds.10 mph43%30.21 "HgN/A
2:50 pm48 °FSunny.6 mph46%30.21 "Hg10 mi
2:20 pm48 °FPassing clouds.8 mph50%30.21 "HgN/A
1:50 pm46 °FPartly sunny.8 mph46%30.21 "HgN/A
1:20 pm46 °FPartly sunny.8 mph43%30.24 "HgN/A
12:50 pm46 °FPartly sunny.7 mph53%30.24 "HgN/A
12:20 pm46 °FPartly sunny.6 mph46%30.24 "HgN/A
11:50 am45 °FBroken clouds.6 mph49%30.24 "HgN/A
11:20 am45 °FPartly sunny.5 mph49%30.24 "HgN/A
10:50 am43 °FPartly sunny.7 mph53%30.24 "HgN/A
10:20 am43 °FBroken clouds.6 mph57%30.24 "HgN/A
9:50 am43 °FScattered clouds.8 mph66%30.24 "HgN/A
9:20 am41 °FScattered clouds.7 mph66%30.24 "HgN/A
8:50 am39 °FPartly sunny.9 mph75%30.24 "HgN/A
8:20 am39 °FPartly sunny.7 mph75%30.24 "HgN/A
7:50 am39 °FScattered clouds.8 mph75%30.24 "HgN/A
7:20 am37 °FPassing clouds.8 mph75%30.21 "HgN/A
6:50 am37 °FScattered clouds.9 mph75%30.21 "HgN/A
6:20 am39 °FPartly sunny.10 mph70%30.21 "HgN/A
5:50 am39 °FPassing clouds.9 mph75%30.21 "HgN/A
4:50 am37 °FPassing clouds.7 mph87%30.21 "HgN/A
4:20 am39 °FClear.7 mph81%30.21 "Hg10 mi
3:50 am41 °FClear.7 mph70%30.21 "Hg10 mi
3:20 am41 °FClear.10 mph76%30.18 "Hg10 mi
2:50 am41 °FClear.8 mph76%30.18 "Hg10 mi
2:20 am41 °FPassing clouds.7 mph76%30.21 "HgN/A
1:50 am39 °FClear.7 mph81%30.21 "Hg10 mi
1:20 am37 °FClear.7 mph87%30.21 "Hg10 mi
12:50 am37 °FClear.6 mph87%30.21 "Hg10 mi
12:20 am39 °FClear.6 mph87%30.21 "Hg10 mi
11:50 pm
Sat, Apr 22
41 °FClear.7 mph87%30.21 "Hg10 mi
11:20 pm43 °FPassing clouds.5 mph81%30.21 "HgN/A
10:50 pm43 °FClear.7 mph81%30.21 "Hg10 mi
10:20 pm45 °FPassing clouds.8 mph76%30.21 "HgN/A
9:50 pm43 °FPassing clouds.6 mph87%30.21 "HgN/A
9:20 pm43 °FPassing clouds.8 mph87%30.18 "HgN/A
8:50 pm45 °FPassing clouds.9 mph76%30.18 "HgN/A
8:20 pm45 °FLight rain. Partly sunny.9 mph76%30.18 "HgN/A
7:50 pm45 °FLight rain. Partly sunny.7 mph81%30.18 "HgN/A
7:20 pm45 °FLight rain. Partly sunny.7 mph81%30.18 "HgN/A
6:50 pm45 °FLight rain. Partly sunny.9 mph81%30.18 "HgN/A
6:20 pm45 °FLight rain. Partly sunny.10 mph81%30.18 "HgN/A
5:50 pm45 °FLight rain. Partly sunny.14 mph81%30.18 "HgN/A
5:20 pm46 °FPartly sunny.15 mph82%30.18 "HgN/A
Weather by CustomWeather, © 2017

See weather overviewHow to use our weather pages